Regional Weather Roundup
Issued by NWS Little Rock, AR

Home | Current Version | Previous Version | Graphics & Text | Print | Product List | Glossary On
Versions: 1 2 3 4 5 6 7 8 9 10 11 12 13 14 15 16 17 18 19 20 21 22 23 24 25 26 27 28 29 30 31 32 33 34 35 36 37 38 39 40 41 42 43 44 45 46 47 48 49 50
000
ASUS44 KLZK 261805
RWRLZK

WEATHER ROUNDUP FOR ARKANSAS
NATIONAL WEATHER SERVICE LITTLE ROCK AR
1200 PM CST MON JAN 26 2015

NOTE: "FAIR" INDICATES FEW OR NO CLOUDS BELOW 12,000 FEET WITH NO
SIGNIFICANT WEATHER AND/OR OBSTRUCTIONS TO VISIBILITY.

ARZ001-003-010-029-261900-
NORTHWEST ARKANSAS

CITY           SKY/WX    TMP DP  RH WIND       PRES   REMARKS
FAYETTEVILLE   SUNNY     51  31  46 SW14G20   30.07F
6HR MIN TEMP:  25; 6HR MAX TEMP:  51;

FORT SMITH     SUNNY     50  32  50 W10       30.12F
6HR MIN TEMP:  31; 6HR MAX TEMP:  50;

HARRISON       SUNNY     49  30  48 NW7       30.04F
6HR MIN TEMP:  33; 6HR MAX TEMP:  50;

BENTONVILLE    SUNNY     48  30  49 W10G16    30.07F
6HR MIN TEMP:  28; 6HR MAX TEMP:  48;

ROGERS         SUNNY     49  32  52 SW13      30.06F
SILOAM SPGS    SUNNY     50  30  46 W9        30.09F
6HR MIN TEMP:  28; 6HR MAX TEMP:  50;

HIGHFILL       SUNNY     51  32  48 W13G20    30.05F
6HR MIN TEMP:  26; 6HR MAX TEMP:  51;

SPRINGDALE     SUNNY     48  32  53 SW12      30.09F
$$

ARZ004-005-016-261900-
NORTH CENTRAL ARKANSAS

CITY           SKY/WX    TMP DP  RH WIND       PRES   REMARKS
BATESVILLE     SUNNY     46  28  49 W8        30.10F
6HR MIN TEMP:  30; 6HR MAX TEMP:  46;

FLIPPIN        SUNNY     46  28  49 SW6       30.05F
6HR MIN TEMP:  36; 6HR MAX TEMP:  46;

MTN HOME       SUNNY     46  30  53 W5        30.05F
6HR MIN TEMP:  34; 6HR MAX TEMP:  46;

$$

ARZ040-041-261900-
WEST CENTRAL ARKANSAS

CITY           SKY/WX    TMP DP  RH WIND       PRES   REMARKS
MENA           SUNNY     59  32  36 W9        30.11F
MOUNT IDA      SUNNY     55  31  39 VRB3      30.09F
6HR MIN TEMP:  33; 6HR MAX TEMP:  55;

$$

ARZ009-017-025-026-028-261900-
NORTHEAST ARKANSAS

CITY           SKY/WX    TMP DP  RH WIND       PRES   REMARKS
JONESBORO      MOSUNNY   40  31  70 W9G21     30.10F
6HR MIN TEMP:  35; 6HR MAX TEMP:  40;

NEWPORT        MOSUNNY   46  30  54 VRB7      30.12F
6HR MIN TEMP:  31; 6HR MAX TEMP:  46;

WALNUT RIDGE   SUNNY     43  28  56 W5        30.08F
6HR MIN TEMP:  32; 6HR MAX TEMP:  43;

BLYTHEVILLE    PTSUNNY   41  30  65 W8        30.10F
6HR MIN TEMP:  30; 6HR MAX TEMP:  43;

NW BLYTHEVILLE PTSUNNY   39  30  70 W5        30.11F
$$

ARZ022-023-033-042-044-261900-
CENTRAL ARKANSAS

CITY           SKY/WX    TMP DP  RH WIND       PRES   REMARKS
LITTLE ROCK    SUNNY     53  29  39 W7        30.13F
6HR MIN TEMP:  34; 6HR MAX TEMP:  53;

N LITTLE ROCK  SUNNY     48  35  59 W5G15     30.13F
6HR MIN TEMP:  35; 6HR MAX TEMP:  49;

JACKSONVILLE   SUNNY     50  32  50 SW10      30.12F
6HR MIN TEMP:  32; 6HR MAX TEMP:  50;

SEARCY         SUNNY     51  32  48 W7        30.12F
6HR MIN TEMP:  29; 6HR MAX TEMP:  51;

HOT SPRINGS    SUNNY     53  32  44 W5        30.12F
6HR MIN TEMP:  34; 6HR MAX TEMP:  53;

RUSSELLVILLE   SUNNY     49  31  49 W7        30.10F
6HR MIN TEMP:  30; 6HR MAX TEMP:  49;

CLINTON        FAIR      50  32  50 E3        30.10F
$$

ARZ036-261900-
EAST ARKANSAS

CITY           SKY/WX    TMP DP  RH WIND       PRES   REMARKS
WEST MEMPHIS   CLOUDY    42  34  73 NW8       30.11F
6HR MIN TEMP:  37; 6HR MAX TEMP:  42;

$$

ARZ050-053-066-070-073-261900-
SOUTHWEST ARKANSAS

CITY           SKY/WX    TMP DP  RH WIND       PRES   REMARKS
ARKADELPHIA    FAIR      53  36  52 SE5       30.15F
6HR MIN TEMP:  31; 6HR MAX TEMP:  53;

CAMDEN         SUNNY     55  30  38 MISG      30.17F
TEXARKANA      SUNNY     55  32  41 NW13      30.17F
6HR MIN TEMP:  37; 6HR MAX TEMP:  55;

EL DORADO      SUNNY     52  33  48 CALM      30.16F
6HR MIN TEMP:  32; 6HR MAX TEMP:  52;

DE QUEEN       SUNNY     56  35  45 W8        30.14F
6HR MIN TEMP:  28; 6HR MAX TEMP:  56;

$$

ARZ056-057-069-261900-
SOUTHEAST ARKANSAS

CITY           SKY/WX    TMP DP  RH WIND       PRES   REMARKS
PINE BLUFF     SUNNY     49  31  49 VRB7      30.13F
6HR MIN TEMP:  32; 6HR MAX TEMP:  49;

STUTTGART      SUNNY     50  34  53 W12       30.14F
6HR MIN TEMP:  34; 6HR MAX TEMP:  50;

MONTICELLO     SUNNY     50  33  52 W8        30.14F
6HR MIN TEMP:  37; 6HR MAX TEMP:  50;


$$




USA.gov is the U.S. government's official web portal to all federal, state and local government web resources and services.